Terminal Aerodrome Forecast
Issued by NWS Billings, MT

Home | Current Version | Previous Version | Graphics & Text | Print | Product List | Glossary On
Versions: 1 2 3 4 5 6 7 8 9 10 11 12 13 14 15 16 17 18 19 20 21 22 23 24 25 26 27 28 29 30 31 32 33 34
000
FTUS45 KBYZ 301735
TAFMLS
TAF
KMLS 301735Z 3018/0118 33009KT 4SM HZ BKN100
     FM302100 31019KT P6SM VCTS SCT070CB BKN100
     FM010100 32022KT P6SM SCT100
     FM010500 30007KT P6SM SKC=

USA.gov is the U.S. government's official web portal to all federal, state and local government web resources and services.